Sioux City, IA

11:04 AM CST on December 10, 2019 (GMT -0600)
Sioux Gateway

Weather History for KSUX - October, 2019

Change the Weather History Date:

Saturday, October 26, 2019

  Actual Average Record
Temperature  
Mean Temperature 45 °F 47 °F  
Max Temperature 60 °F 59 °F 84 °F (1955)
Min Temperature 30 °F 35 °F 17 °F (1942)
Degree Days  
Heating Degree Days 20 18  
Month to date heating degree days 438 354  
Since 1 July heating degree days 474 501  
Cooling Degree Days 0 0  
Month to date cooling degree days 0 8  
Year to date cooling degree days 910 869  
Moisture  
Dew Point 31 °F    
Average Humidity 63    
Maximum Humidity 92    
Minimum Humidity 36    
Precipitation  
Precipitation 0.00 in 0.05 in 0.73 in (1998)
Month to date precipitation 2.42 1.89  
Year to date precipitation 30.53 25.39  
Snow  
Snow 0.00 in 0.10 in 3.40 in (1918)
Month to date snowfall T 0.7  
Since 1 July snowfall T 0.7  
Since 1 September snowfall T 0.7  
Snow Depth 0.00 in    
Sea Level Pressure  
Sea Level Pressure 29.81 in    
Wind  
Wind Speed 10 mph ()    
Max Wind Speed 28 mph    
Max Gust Speed 36 mph    
Visibility 10.0 miles    
Events      
T = Trace of Precipitation, MM = Missing Value Source: Averaged Metar Reports

Daily Weather History Graph

Daily Weather History Graph

Search for Another Location

Airport or City:

Astronomy

Oct. 26, 2019 Rise Set
Actual Time 7:51 AM CDT 6:27 PM CDT
Civil Twilight 7:22 AM CDT 6:55 PM CDT
Nautical Twilight 6:49 AM CDT 7:28 PM CDT
Astronomical Twilight 6:16 AM CDT 8:01 PM CDT
Moon 5:44 AM CDT (10/26) 6:06 PM CDT (10/26)
Length of Visible Light 11h 33m
Length of Day
10h 35m
Waning Crescent, 3% of the Moon is Illuminated
Oct 26
Waning Crescent
Oct 27
New
Nov 4
First Quarter
Nov 12
Full
Nov 19
Last Quarter

Hourly Weather History & Observations

Time (CDT) Temp. Windchill Dew Point Humidity Pressure Visibility Wind Dir Wind Speed Gust Speed Precip Events Conditions
12:52 AM 37.9 °F 32.1 °F 28.0 °F 68% 30.04 in 10.0 mi SE 8.1 mph - N/A   Clear
1:52 AM 34.0 °F 26.0 °F 28.9 °F 82% 30.03 in 10.0 mi SE 10.4 mph - N/A   Clear
2:52 AM 34.0 °F 26.6 °F 28.0 °F 79% 30.01 in 10.0 mi SE 9.2 mph - N/A   Clear
3:52 AM 33.1 °F 25.5 °F 28.0 °F 82% 29.98 in 10.0 mi ESE 9.2 mph - N/A   Clear
4:52 AM 37.0 °F 29.8 °F 28.9 °F 73% 29.96 in 10.0 mi SSE 10.4 mph - N/A   Clear
5:52 AM 30.0 °F 20.5 °F 27.0 °F 88% 29.95 in 10.0 mi ESE 11.5 mph - N/A   Clear
6:52 AM 33.1 °F 24.4 °F 28.0 °F 82% 29.91 in 10.0 mi SE 11.5 mph - N/A   Clear
7:52 AM 30.9 °F 21.7 °F 28.0 °F 89% 29.88 in 10.0 mi SE 11.5 mph - N/A   Clear
8:52 AM 36.0 °F 29.0 °F 28.9 °F 76% 29.87 in 10.0 mi SE 9.2 mph - N/A   Clear
9:52 AM 42.1 °F 36.1 °F 30.9 °F 65% 29.83 in 10.0 mi SSE 10.4 mph - N/A   Clear
10:52 AM 48.0 °F - 30.9 °F 52% 29.82 in 10.0 mi SSE 12.7 mph - N/A   Clear
11:52 AM 53.1 °F - 30.9 °F 43% 29.79 in 10.0 mi SSE 13.8 mph - N/A   Clear
12:52 PM 57.0 °F - 30.0 °F 36% 29.75 in 10.0 mi SSE 20.7 mph 27.6 mph N/A   Clear
1:52 PM 57.0 °F - 32.0 °F 39% 29.71 in 10.0 mi SSE 20.7 mph 28.8 mph N/A   Clear
2:52 PM 57.9 °F - 32.0 °F 37% 29.68 in 10.0 mi SSE 17.3 mph 28.8 mph N/A   Clear
3:52 PM 59.0 °F - 34.0 °F 39% 29.66 in 10.0 mi SSE 15.0 mph 25.3 mph N/A   Clear
4:52 PM 59.0 °F - 34.0 °F 39% 29.65 in 10.0 mi SSE 11.5 mph - N/A   Clear
5:52 PM 57.0 °F - 32.0 °F 39% 29.67 in 10.0 mi SSE 6.9 mph - N/A   Clear
6:52 PM 48.9 °F - 35.1 °F 59% 29.68 in 10.0 mi SE 9.2 mph - N/A   Clear
7:52 PM 46.9 °F - 35.1 °F 63% 29.69 in 10.0 mi SE 8.1 mph - N/A   Clear
8:52 PM 46.9 °F - 34.0 °F 61% 29.70 in 10.0 mi SSE 6.9 mph - N/A   Clear
9:52 PM 42.1 °F 37.7 °F 34.0 °F 73% 29.72 in 10.0 mi WNW 6.9 mph - N/A   Clear
10:52 PM 48.0 °F - 37.9 °F 68% 29.73 in 10.0 mi NW 20.7 mph 33.4 mph N/A   Clear
11:52 PM 45.0 °F 37.4 °F 37.0 °F 74% 29.73 in 10.0 mi NNW 18.4 mph - N/A   Clear